Lid_Strength_Index
5 4 4 4 4 4 4 4 4 4 3 3 2 2 2 2 1 1 1 1 2 2 2 2 3 2 2 2 3 3 3 3 5 6 11 13 12 13 13 12 12 12 11
7 6 6 6 6 5 5 5 4 2 2 2 1 1 1 1 1 2 2 1 2 2 2 2 3 2 3 2 2 3 3 3 3 5 12 13 13 12 13 13 13 12 12
12 11 11 11 11 11 11 10 9 9 8 7 6 4 3 2 2 2 1 2 1 1 1 2 2 2 3 3 2 3 3 4 8 12 13 14 14 12 13 14 14 14 13
11 11 11 11 11 11 11 11 11 10 9 8 7 7 6 5 5 5 4 3 2 1 3 4 4 3 3 3 3 4 7 10 11 12 14 14 13 14 13 15 15 15 15
11 12 12 11 11 11 11 11 10 9 9 9 8 8 7 7 7 7 7 6 5 4 5 5 5 7 10 8 7 7 9 12 13 13 14 14 14 14 14 14 15 15 16
12 12 12 12 13 13 13 12 11 10 9 9 10 9 10 10 9 9 9 8 7 7 7 7 7 10 9 8 7 7 7 10 12 12 13 13 13 13 14 15 16 16 17
11 12 13 13 13 14 13 13 13 12 11 12 11 11 12 10 9 8 9 10 10 9 10 10 10 11 11 11 9 9 10 8 9 10 12 12 13 13 13 15 15 15 16
13 13 14 14 14 14 13 13 11 12 12 12 13 13 13 12 9 9 9 10 11 11 11 11 11 11 11 12 12 12 13 13 12 12 12 13 12 12 13 13 14 16 16
13 14 14 14 15 13 12 11 11 13 13 12 12 13 13 12 10 9 10 12 12 12 12 12 11 12 11 10 12 13 13 13 11 11 11 11 11 11 12 14 15 16 17
14 14 14 15 13 13 12 12 13 13 13 13 13 13 13 12 11 9 11 13 13 13 13 13 12 12 10 10 12 13 13 13 13 13 12 11 11 11 11 13 14 17 17
15 15 16 15 13 13 13 13 13 13 13 13 14 14 13 13 12 9 10 13 13 14 14 13 13 10 10 10 10 12 12 12 12 13 13 13 13 13 14 14 13 14 16
16 16 16 14 13 13 12 13 13 13 13 13 13 13 16 15 12 10 10 11 11 16 15 15 13 10 10 10 11 10 10 12 13 13 14 14 15 14 13 14 14 14 13
16 15 15 13 13 13 13 13 13 13 13 14 14 15 17 16 14 11 10 10 11 15 15 13 11 10 10 11 10 10 12 14 17 17 16 18 16 13 13 13 15 14 14
15 15 14 13 13 13 13 13 13 13 13 14 15 18 19 15 14 16 15 16 14 14 13 13 11 11 11 12 12 12 15 17 18 18 16 14 14 14 14 14 16 16 16
15 15 14 13 14 14 14 13 14 14 14 14 19 19 19 19 14 12 12 13 15 13 13 13 13 13 14 14 13 13 13 13 14 14 17 14 14 15 16 15 15 16 17
15 15 14 14 14 14 15 15 12 11 11 11 11 15 18 13 11 11 11 11 11 12 18 15 15 15 15 15 14 14 14 14 14 13 13 13 15 14 14 16 15 15 16
15 15 15 14 14 15 15 15 17 17 12 11 11 11 11 11 11 11 11 11 11 12 15 16 17 16 15 15 15 14 14 16 17 16 14 14 14 14 15 14 16 15 15
16 15 15 15 15 16 17 17 17 19 20 21 15 13 12 12 12 11 11 11 13 13 14 15 15 15 14 19 20 19 19 18 18 15 14 13 13 13 13 14 14 15 15
18 19 20 21 22 21 22 23 23 24 18 16 18 16 15 12 12 12 12 13 14 14 14 14 14 14 13 13 13 13 13 13 16 15 16 14 14 13 14 15 15 15 15
18 18 17 18 19 19 19 18 16 15 16 17 19 19 21 15 16 17 19 19 19 19 20 19 19 21 20 19 18 17 16 16 15 15 15 16 16 16 16 17 17 17 18
16 16 16 16 15 15 15 15 16 17 18 20 22 20 18 24 22 23 23 24 26 27 28 29 28 26 25 25 25 24 23 21 20 19 18 19 19 20 19 18 19 19 19
17 17 17 17 17 18 20 20 20 22 24 29 33 29 22 31 32 33 35 35 35 34 33 32 30 30 30 29 28 27 27 25 24 23 23 22 20 21 21 20 20 19 20
21 22 23 24 25 27 28 28 27 28 29 31 33 32 32 32 32 32 33 35 34 33 34 33 33 32 33 32 32 31 29 28 27 26 24 24 24 23 23 22 22 22 21
25 25 25 26 26 27 27 28 29 29 29 31 31 32 31 32 33 33 33 33 33 32 34 35 35 34 33 32 32 32 32 31 31 30 28 26 26 24 25 23 21 20 20
25 25 25 25 25 26 27 27 28 28 28 27 29 30 32 32 31 32 33 32 31 32 32 32 33 33 32 30 30 29 29 26 28 28 31 30 28 28 26 25 23 23 22
25 25 26 26 26 26 26 26 27 27 28 27 27 28 29 30 30 32 31 31 30 30 30 31 31 31 30 31 31 27 24 20 22 23 23 28 27 28 26 25 24 25 23